GLD1028 SBSP-SBCT

Flight info

Callsign GLD1028
Flight time 0h 37m
Altitude 26000
Route UTKO1A SOVSI UZ85 RAXIT RAXI1A
Aircraft B738/M-SDFGIRY/S

Departure

Time 2026-05-04 22:46
Airport Congonhas–Deputado Freitas Nobre Airport (SBSP)

Arrival

Time 2026-05-04 23:23
Airport Curitiba-Afonso Pena International Airport (SBCT)
Time Latitude Longitude Altitude Speed Heading
2026-05-04 22:15 -23.62657 -46.65863 2600 ft 0 kts 237°
2026-05-04 22:37 -23.62652 -46.65854 2600 ft 1 kts 237°
2026-05-04 22:37 -23.62647 -46.65846 2600 ft 1 kts 237°
2026-05-04 22:38 -23.62642 -46.65838 2600 ft 1 kts 237°
2026-05-04 22:38 -23.62637 -46.65829 2600 ft 1 kts 237°
2026-05-04 22:38 -23.62632 -46.65821 2600 ft 1 kts 237°
2026-05-04 22:38 -23.62627 -46.65813 2600 ft 1 kts 237°
2026-05-04 22:39 -23.62622 -46.65805 2600 ft 1 kts 236°
2026-05-04 22:39 -23.62617 -46.65798 2601 ft 1 kts 246°
2026-05-04 22:39 -23.62614 -46.65793 2601 ft 1 kts 311°
2026-05-04 22:39 -23.62615 -46.65792 2601 ft 0 kts 327°
2026-05-04 22:41 -23.62598 -46.65804 2601 ft 6 kts 327°
2026-05-04 22:41 -23.62564 -46.65827 2601 ft 6 kts 329°
2026-05-04 22:41 -23.62531 -46.65849 2601 ft 6 kts 328°
2026-05-04 22:41 -23.62498 -46.65871 2600 ft 6 kts 327°
2026-05-04 22:42 -23.62466 -46.65894 2600 ft 5 kts 327°
2026-05-04 22:42 -23.62434 -46.65916 2600 ft 5 kts 328°
2026-05-04 22:42 -23.62402 -46.65937 2600 ft 5 kts 329°
2026-05-04 22:42 -23.62371 -46.65959 2599 ft 6 kts 327°
2026-05-04 22:43 -23.62332 -46.65987 2599 ft 8 kts 327°
2026-05-04 22:43 -23.62287 -46.66018 2599 ft 8 kts 329°
2026-05-04 22:43 -23.62241 -46.66045 2599 ft 7 kts 335°
2026-05-04 22:43 -23.62196 -46.66072 2592 ft 7 kts 328°
2026-05-04 22:44 -23.62155 -46.66101 2591 ft 7 kts 326°
2026-05-04 22:44 -23.62119 -46.66127 2593 ft 5 kts 327°
2026-05-04 22:44 -23.62076 -46.66139 2596 ft 8 kts 357°
2026-05-04 22:44 -23.62028 -46.66094 2589 ft 11 kts 94°
2026-05-04 22:45 -23.62048 -46.66072 2589 ft 0 kts 151°
2026-05-04 22:45 -23.62351 -46.65863 2600 ft 90 kts 147°
2026-05-04 22:45 -23.63081 -46.65352 2645 ft 153 kts 147°
2026-05-04 22:46 -23.64007 -46.64693 3320 ft 162 kts 145°
2026-05-04 22:46 -23.65016 -46.64003 3926 ft 186 kts 152°
2026-05-04 22:46 -23.66288 -46.63716 4613 ft 199 kts 189°
2026-05-04 22:46 -23.67740 -46.64047 4857 ft 226 kts 193°
2026-05-04 22:47 -23.69389 -46.64326 5048 ft 251 kts 189°
2026-05-04 22:47 -23.71189 -46.64535 5428 ft 266 kts 187°
2026-05-04 22:47 -23.73060 -46.64705 6149 ft 271 kts 187°
2026-05-04 22:47 -23.74885 -46.65017 6949 ft 268 kts 205°
2026-05-04 22:48 -23.76365 -46.66145 7323 ft 259 kts 235°
2026-05-04 22:48 -23.77188 -46.67878 7466 ft 259 kts 257°
2026-05-04 22:48 -23.77296 -46.69812 7494 ft 256 kts 275°
2026-05-04 22:48 -23.77546 -46.71716 7480 ft 258 kts 244°
2026-05-04 22:49 -23.78541 -46.73350 7488 ft 260 kts 237°
2026-05-04 22:49 -23.79592 -46.74967 7569 ft 263 kts 237°
2026-05-04 22:49 -23.80652 -46.76609 8229 ft 265 kts 237°
2026-05-04 22:49 -23.81702 -46.78263 9091 ft 265 kts 237°
2026-05-04 22:50 -23.82744 -46.79933 9888 ft 268 kts 237°
2026-05-04 22:50 -23.83780 -46.81613 10550 ft 275 kts 237°
2026-05-04 22:50 -23.84876 -46.83406 10942 ft 290 kts 237°
2026-05-04 22:50 -23.86007 -46.85260 11579 ft 296 kts 237°
2026-05-04 22:51 -23.87152 -46.87141 12325 ft 298 kts 237°
2026-05-04 22:51 -23.88207 -46.89093 13069 ft 299 kts 245°
2026-05-04 22:51 -23.89054 -46.91178 13795 ft 302 kts 248°
2026-05-04 22:51 -23.89852 -46.93316 14475 ft 305 kts 248°
2026-05-04 22:52 -23.90651 -46.95480 15125 ft 308 kts 248°
2026-05-04 22:52 -23.91464 -46.97662 15771 ft 311 kts 248°
2026-05-04 22:52 -23.92280 -46.99825 16432 ft 314 kts 248°
2026-05-04 22:52 -23.93123 -47.02041 17056 ft 318 kts 248°
2026-05-04 22:53 -23.93983 -47.04284 17678 ft 321 kts 248°
2026-05-04 22:53 -23.94854 -47.06549 18298 ft 325 kts 248°
2026-05-04 22:53 -23.95734 -47.08834 18857 ft 328 kts 247°
2026-05-04 22:53 -23.96622 -47.11135 19430 ft 330 kts 247°
2026-05-04 22:54 -23.97539 -47.13510 19560 ft 348 kts 247°
2026-05-04 22:54 -23.98499 -47.15998 19683 ft 364 kts 247°
2026-05-04 22:54 -23.99490 -47.18567 19786 ft 379 kts 247°
2026-05-04 22:54 -24.00529 -47.21261 19976 ft 390 kts 247°
2026-05-04 22:55 -24.01597 -47.24032 20232 ft 396 kts 247°
2026-05-04 22:55 -24.02658 -47.26785 21019 ft 389 kts 247°
2026-05-04 22:55 -24.03709 -47.29514 21587 ft 390 kts 247°
2026-05-04 22:55 -24.04762 -47.32252 21996 ft 393 kts 247°
2026-05-04 22:56 -24.05833 -47.35037 22314 ft 399 kts 247°
2026-05-04 22:56 -24.06912 -47.37845 22693 ft 402 kts 247°
2026-05-04 22:56 -24.07983 -47.40634 23152 ft 403 kts 247°
2026-05-04 22:56 -24.09071 -47.43468 23619 ft 404 kts 247°
2026-05-04 22:57 -24.10335 -47.46144 24508 ft 389 kts 234°
2026-05-04 22:57 -24.12123 -47.48294 25476 ft 376 kts 222°
2026-05-04 22:57 -24.14227 -47.49960 25911 ft 370 kts 215°
2026-05-04 22:57 -24.16398 -47.51449 26174 ft 371 kts 214°
2026-05-04 22:58 -24.18636 -47.52942 26168 ft 382 kts 214°
2026-05-04 22:58 -24.20929 -47.54476 26180 ft 392 kts 214°
2026-05-04 22:58 -24.23243 -47.56044 26183 ft 401 kts 214°
2026-05-04 22:58 -24.25634 -47.57680 26184 ft 409 kts 214°
2026-05-04 22:59 -24.28067 -47.59359 26180 ft 417 kts 214°
2026-05-04 22:59 -24.30541 -47.61073 26172 ft 424 kts 214°
2026-05-04 22:59 -24.33056 -47.62818 26174 ft 431 kts 214°
2026-05-04 22:59 -24.35608 -47.64589 26165 ft 436 kts 214°
2026-05-04 23:00 -24.38190 -47.66382 26161 ft 442 kts 214°
2026-05-04 23:00 -24.40796 -47.68194 26164 ft 446 kts 214°
2026-05-04 23:00 -24.43352 -47.70134 26149 ft 448 kts 221°
2026-05-04 23:00 -24.45654 -47.72385 26160 ft 451 kts 225°
2026-05-04 23:01 -24.47929 -47.74770 26153 ft 454 kts 225°
2026-05-04 23:01 -24.50204 -47.77192 26149 ft 456 kts 225°
2026-05-04 23:01 -24.52494 -47.79615 26156 ft 459 kts 225°
2026-05-04 23:01 -24.54811 -47.82037 26148 ft 460 kts 225°
2026-05-04 23:02 -24.57147 -47.84452 26151 ft 462 kts 225°
2026-05-04 23:02 -24.59491 -47.86859 26149 ft 462 kts 224°
2026-05-04 23:02 -24.61850 -47.89274 26158 ft 463 kts 224°
2026-05-04 23:02 -24.64177 -47.91653 26149 ft 464 kts 224°
2026-05-04 23:03 -24.66536 -47.94067 26154 ft 464 kts 224°
2026-05-04 23:03 -24.68899 -47.96485 26154 ft 464 kts 224°
2026-05-04 23:03 -24.71257 -47.98903 26154 ft 463 kts 224°
2026-05-04 23:03 -24.73565 -48.01267 26133 ft 442 kts 224°
2026-05-04 23:04 -24.75775 -48.03532 25759 ft 431 kts 224°
2026-05-04 23:04 -24.77957 -48.05773 25253 ft 426 kts 224°
2026-05-04 23:04 -24.80104 -48.07981 24693 ft 418 kts 224°
2026-05-04 23:04 -24.82192 -48.10127 24186 ft 405 kts 224°
2026-05-04 23:05 -24.84193 -48.12185 23673 ft 393 kts 224°
2026-05-04 23:05 -24.86164 -48.14215 23113 ft 382 kts 224°
2026-05-04 23:05 -24.88077 -48.16185 22617 ft 373 kts 224°
2026-05-04 23:05 -24.89966 -48.18133 22161 ft 371 kts 224°
2026-05-04 23:06 -24.91846 -48.20071 21683 ft 369 kts 224°
2026-05-04 23:06 -24.93560 -48.22139 21385 ft 362 kts 235°
2026-05-04 23:06 -24.94859 -48.24473 21151 ft 355 kts 244°
2026-05-04 23:06 -24.95867 -48.26959 20915 ft 357 kts 246°
2026-05-04 23:07 -24.96838 -48.29466 20686 ft 363 kts 247°
2026-05-04 23:07 -24.97827 -48.32038 20451 ft 365 kts 247°
2026-05-04 23:07 -24.98813 -48.34600 20203 ft 358 kts 247°
2026-05-04 23:07 -24.99771 -48.37078 19944 ft 346 kts 247°
2026-05-04 23:08 -25.00698 -48.39469 19699 ft 334 kts 247°
2026-05-04 23:08 -25.01600 -48.41788 19449 ft 324 kts 247°
2026-05-04 23:08 -25.02476 -48.44039 19163 ft 317 kts 247°
2026-05-04 23:08 -25.03344 -48.46266 18833 ft 316 kts 247°
2026-05-04 23:09 -25.04216 -48.48505 18421 ft 318 kts 247°
2026-05-04 23:09 -25.05075 -48.50710 18059 ft 317 kts 247°
2026-05-04 23:09 -25.05943 -48.52941 17668 ft 316 kts 247°
2026-05-04 23:09 -25.06809 -48.55165 17300 ft 315 kts 247°
2026-05-04 23:10 -25.07672 -48.57383 16930 ft 314 kts 247°
2026-05-04 23:10 -25.08532 -48.59595 16569 ft 313 kts 247°
2026-05-04 23:10 -25.09389 -48.61801 16211 ft 313 kts 247°
2026-05-04 23:10 -25.10243 -48.64000 15851 ft 312 kts 247°
2026-05-04 23:11 -25.11097 -48.66200 15502 ft 312 kts 247°
2026-05-04 23:11 -25.11938 -48.68367 15147 ft 311 kts 248°
2026-05-04 23:11 -25.12790 -48.70562 14777 ft 311 kts 248°
2026-05-04 23:11 -25.13641 -48.72759 14420 ft 311 kts 248°
2026-05-04 23:12 -25.14495 -48.74960 14008 ft 313 kts 248°
2026-05-04 23:12 -25.15347 -48.77163 13634 ft 312 kts 248°
2026-05-04 23:12 -25.16199 -48.79363 13260 ft 311 kts 248°
2026-05-04 23:12 -25.17047 -48.81557 12884 ft 310 kts 248°
2026-05-04 23:13 -25.17891 -48.83740 12527 ft 308 kts 248°
2026-05-04 23:13 -25.18719 -48.85882 12174 ft 307 kts 248°
2026-05-04 23:13 -25.19552 -48.88041 11942 ft 299 kts 248°
2026-05-04 23:13 -25.20351 -48.90109 11699 ft 288 kts 248°
2026-05-04 23:14 -25.21123 -48.92105 11413 ft 279 kts 248°
2026-05-04 23:14 -25.21872 -48.94048 11106 ft 271 kts 248°
2026-05-04 23:14 -25.22603 -48.95943 10842 ft 267 kts 248°
2026-05-04 23:14 -25.23330 -48.97832 10546 ft 267 kts 248°
2026-05-04 23:15 -25.24054 -48.99713 10334 ft 263 kts 248°
2026-05-04 23:15 -25.24764 -49.01556 10133 ft 260 kts 248°
2026-05-04 23:15 -25.25460 -49.03366 9850 ft 259 kts 248°
2026-05-04 23:15 -25.26164 -49.05195 9564 ft 259 kts 248°
2026-05-04 23:16 -25.26868 -49.07028 9273 ft 260 kts 249°
2026-05-04 23:16 -25.27581 -49.08886 8991 ft 266 kts 249°
2026-05-04 23:16 -25.28308 -49.10779 8771 ft 269 kts 249°
2026-05-04 23:16 -25.29047 -49.12703 8509 ft 272 kts 249°
2026-05-04 23:17 -25.29779 -49.14612 8359 ft 268 kts 249°
2026-05-04 23:17 -25.30504 -49.16499 8238 ft 264 kts 249°
2026-05-04 23:17 -25.31216 -49.18353 8122 ft 261 kts 249°
2026-05-04 23:17 -25.31910 -49.20165 8034 ft 259 kts 249°
2026-05-04 23:18 -25.32617 -49.22010 7747 ft 261 kts 249°
2026-05-04 23:18 -25.33402 -49.23820 7471 ft 264 kts 237°
2026-05-04 23:18 -25.34680 -49.25288 7232 ft 265 kts 226°
2026-05-04 23:18 -25.36023 -49.26681 6935 ft 265 kts 227°
2026-05-04 23:19 -25.37347 -49.28075 6642 ft 261 kts 227°
2026-05-04 23:19 -25.38651 -49.29452 6342 ft 259 kts 225°
2026-05-04 23:19 -25.40272 -49.30377 6005 ft 273 kts 192°
2026-05-04 23:19 -25.42145 -49.30134 5661 ft 283 kts 159°
2026-05-04 23:20 -25.43654 -49.28787 5313 ft 279 kts 124°
2026-05-04 23:20 -25.44619 -49.27030 4990 ft 256 kts 126°
2026-05-04 23:20 -25.45748 -49.25608 4655 ft 236 kts 135°
2026-05-04 23:20 -25.46858 -49.24354 4355 ft 220 kts 134°
2026-05-04 23:21 -25.47891 -49.23176 4083 ft 206 kts 134°
2026-05-04 23:21 -25.48852 -49.22092 3825 ft 190 kts 134°
2026-05-04 23:21 -25.49727 -49.21105 3573 ft 172 kts 133°
2026-05-04 23:21 -25.50537 -49.20173 3305 ft 161 kts 133°
2026-05-04 23:22 -25.51259 -49.19363 3221 ft 139 kts 134°
2026-05-04 23:22 -25.51933 -49.18604 3053 ft 135 kts 134°
2026-05-04 23:22 -25.52562 -49.17895 2995 ft 116 kts 136°
2026-05-04 23:22 -25.52902 -49.17520 2994 ft 50 kts 135°
2026-05-04 23:23 -25.53124 -49.17269 2996 ft 32 kts 135°
2026-05-04 23:23 -25.53273 -49.17102 2995 ft 29 kts 135°
2026-05-04 23:23 -25.53413 -49.16946 2994 ft 28 kts 134°
2026-05-04 23:23 -25.53543 -49.16799 2993 ft 23 kts 135°
2026-05-04 23:24 -25.53611 -49.16822 2994 ft 11 kts 265°
2026-05-04 23:24 -25.53612 -49.16893 2994 ft 0 kts 270°
2026-05-04 23:24 -25.53612 -49.16937 2994 ft 10 kts 272°
2026-05-04 23:25 -25.53584 -49.17007 2995 ft 10 kts 263°
2026-05-04 23:25 -25.53596 -49.17081 2995 ft 10 kts 277°
2026-05-04 23:25 -25.53612 -49.17116 2995 ft 1 kts 217°
2026-05-04 23:25 -25.53617 -49.17120 2995 ft 1 kts 219°
2026-05-04 23:26 -25.53622 -49.17126 2995 ft 1 kts 221°
2026-05-04 23:26 -25.53634 -49.17138 2995 ft 3 kts 224°
2026-05-04 23:26 -25.53641 -49.17146 2995 ft 0 kts 225°